Location: Unspecified
(35.6961°N, 0.0000°E)
Time: 16:56:56
(UTC+00:00)

Explorer 11/Cluster Stage 4 - Pass Details

Date: 29 May 2019
Orbit: 467 x 1260 km, 28.8° (Epoch: 17 June)

Event Time Altitude Azimuth Distance (km) Brightness Sun altitude
Rises 00:41:09 0° 239° (WSW) 4,007 - -31.8°
Reaches altitude 10° 00:44:24 10° 231° (SW) 2,943 - -31.7°
Maximum altitude 00:50:49 35° 169° (S) 1,494 - -31.4°
Drops below altitude 10° 00:56:09 10° 105° (ESE) 2,435 - -31.1°
Exits shadow 00:56:41 - 102° (ESE) 2,603 9.3 -31.1°
Sets 00:58:37 0° 96° (E) 3,240 9.9 -30.9°
